Погода в Арарате

Армения     39°50′30″N   44°41′59″E
темп.,
°C
ветер,
м/с
пор.,
м/с
влажн.,
%
обл.,
%
осадки,
мм/ч
давл.,
гПа
погр.,
м
27 сентября, пн
пн2701:00+16в12280 0.0 101711
04:00+14ссз12310 0.0 101611
07:00+12ссз12360 0.0 101610
10:00+18зсз10250 0.0 1015454
13:00+22ю12181 0.0 1012970
16:00+25ююз11140 0.0 10081099
19:00+21з11190 0.0 100711
22:00+19ссв11220 0.0 100811
28 сентября, вт
вт2801:00+18с33270 0.0 100919
04:00+16с22380 0.0 100916
07:00+14с22470 0.0 101116
10:00+19ссз22350 0.0 1012609
13:00+23сз11240 0.0 10101220
16:00+25з11190 0.0 10081403
19:00+22ю11250 0.0 100811
22:00+20св22290 0.0 101015
29 сентября, ср
ср2901:00+16ссз36490 0.0 1013167
04:00+15ссз22540 0.0 101426
07:00+13всв11600 0.0 101511
10:00+18ююв23440 0.0 1015623
13:00+23юв45320 0.0 10121202
16:00+25ююв44254 0.0 10091446
19:00+22юв22313 0.0 100914
22:00+21ссз333259 0.0 101052
30 сентября, чт
чт3001:00+17ссз69514 0.0 1013271
04:00+15ссз48585 0.0 1014228
07:00+14с126241 0.0 101619
10:00+18сз23451 0.0 1016730
13:00+22зсз12331 0.0 10141458
16:00+24зсз122898 0.1 10121534
19:00+19сз344997 0.8 1014116
22:00+18ю115297 1.3 101553
1 октября, пт
пт101:00+15юв355911 0.1 1018219
04:00+13юв366419 0.2 1019251
07:00+12юв366610 0.0 1021229
10:00+15юв565121 0.0 1021677
13:00+20ююв45376 0.0 10191228
16:00+22ююв453329 0.0 10171595
19:00+19юв563996 0.0 1017347
22:00+15юв685196 0.0 1020322